Find Starlink 32657

NORAD ID: 62475 Int'l Des: 2024-254 Owner: SPXS Country: US Constellation: starlink operational
LEOCIRCULAR

Live-Position

3D-Globus wird geladen...

Über Starlink 32657

Beschreibung wird geladen...

Nächste Überflüge

Passes for default location (London). Set your location on the main map for personalized predictions.

Höhenverlauf

Loading altitude history...

Zweizeiliger Elementsatz

1 62475U 24254P 26122.29833862 .00035804 00000-0 13032-2 0 9996
2 62475 42.9993 76.9182 0001431 270.9966 89.0721 15.27606749 75661
Epoch: 2. Mai 2026 • Age: 10 hours

Aktueller Status

Höhe 483.8 km
Geschwindigkeit 7.62 km/s
Subsatellitenpunkt -7.33°S, 140.66°E
Startdatum 31. Dez. 2024
Alter 1.3 years
Typ internet

Technische Details

Klassifizierung Payload
Masse 730.00 kg
Trockenmasse 700.00 kg
Gesamtmasse 730.00 kg
Länge 0.30 m
Durchmesser 4.10 m
Spannweite 29.00 m
Form Box + pan
Hersteller SPXS
Bus-Typ Starlink V2M
Phasenstatus In Orbit
Besitzer/Staat SPXS/US

Most Searched